[[{"header":{"parameterUnit":"m.s-1","parameterCategory":1,"la1":30.2992,"la2":30.254,"lo1":-89.0895,"lo2":-89.0443,"dy":0.0025,"dx":0.0025,"nx":19,"ny":19,"refTime":"2026-04-24T03:00:00:Z","depth":0,"parameterNumber":2,"parameterNumberName":"U-component_of_WINDS"},"data":[0,0,0,0.9538,0.9538,0.9581,0.9581,0.9632,0.9633,0,0,0,0,0,0,0,0,0,0,0,0.9523,0.9523,0.9537,0.9538,0.9581,0.9581,0.9632,0.9633,0,0,0,0,0,0,0,0,0,0,0,0.9523,0.9523,0.9524,0.9539,0.9581,0.9581,0.9632,0.9601,0,0,0,0,0,0,0,0,0,0,0.956,0.9545,0.9523,0.9524,0.9539,0.9581,0.9581,0.96,0.9603,0.9612,0,0.9619,0,0.9627,0.9636,0.9636,0,0,0,0.954,0.9542,0.9556,0.9524,0.9539,0.9581,0.9562,0.9602,0.9606,0.9616,0.962,0.9622,0.9628,0.9636,0.9637,0.9682,0.9682,0,0,0.9537,0.953,0.9553,0.9558,0.9551,0.9561,0.9564,0.9604,0.9607,0.962,0.9623,0.9628,0.9637,0.9637,0.9682,0.9682,0,0,0,0.953,0.9528,0.954,0.9556,0.9564,0.9562,0.9565,0.9606,0.961,0.9624,0.9629,0.9637,0.9638,0.9682,0.9682,0.9682,0,0,0,0.9528,0.9523,0.9539,0.9535,0.9563,0.9585,0.9566,0.9607,0.9612,0.9629,0.9637,0.9638,0.9682,0.9682,0.9682,0.9683,0,0,0,0.9521,0.9523,0.9528,0.9534,0.9552,0.9585,0.9592,0.9609,0.9616,0.9636,0.9638,0.9681,0.9682,0.9681,0.9683,0.9693,0,0,0,0.951,0.9528,0.9528,0.9549,0.9552,0.9585,0.9592,0.9616,0.9634,0.9637,0.9682,0.9682,0.9681,0.9683,0.9693,0.9701,0.9703,0,0,0.9528,0.9529,0.9542,0.9544,0.9575,0.9579,0.9609,0.9633,0.9642,0.9668,0.9669,0.9682,0.9683,0.9693,0.9719,0.9721,0,0,0,0.9545,0.9555,0.9564,0.9581,0.9599,0.9615,0.9635,0.9644,0.9666,0.9654,0.9688,0.9689,0.9696,0.97,0.9701,0.9707,0.9683,0.9683,0.9683,0.9559,0.9569,0.9592,0.9607,0.9623,0.9643,0.9657,0.9672,0.9678,0.9686,0.9694,0.9709,0.9713,0.9714,0.972,0.9699,0.9699,0.9699,0.9699,0.9585,0.96,0.9607,0.9632,0.9643,0.9663,0.9683,0.9686,0.9707,0.9704,0.971,0.9706,0.9716,0.9722,0.9699,0.9699,0.9699,0.9699,0.9699,0.9595,0.9604,0.9615,0.964,0.9658,0.9673,0.9692,0.9701,0.971,0.9716,0.9725,0.9726,0.9727,0.972,0.972,0.972,0.972,0.972,0.972,0.9602,0.9613,0.9629,0.965,0.9662,0.9678,0.9698,0.971,0.9726,0.9731,0.9731,0.9736,0.9715,0.971,0.9721,0.9721,0.9721,0.9721,0.9721,0.9625,0.9621,0.9645,0.9657,0.9682,0.9699,0.9711,0.9734,0.9745,0.9754,0.9758,0.9741,0.9743,0.9742,0.9738,0.9755,0.9755,0.9755,0.9755,0.9633,0.9635,0.9662,0.968,0.97,0.9712,0.9738,0.9754,0.9769,0.9776,0.9775,0.977,0.9769,0.9772,0.977,0.9766,0.979,0.9791,0.9791,0.9648,0.9653,0.9673,0.9689,0.9709,0.9726,0.9751,0.9772,0.9788,0.9792,0.9782,0.9781,0.9773,0.977,0.9774,0.9771,0.9764,0,0]},{"header":{"parameterUnit":"m.s-1","parameterCategory":1,"la1":30.2992,"la2":30.254,"lo1":-89.0895,"lo2":-89.0443,"dy":0.0025,"dx":0.0025,"nx":19,"ny":19,"refTime":"2026-04-24T03:00:00:Z","depth":0,"parameterNumber":3,"parameterNumberName":"V-component_of_WINDS"},"data":[0,0,0,4.0893,4.0893,4.0876,4.0876,4.0849,4.0848,0,0,0,0,0,0,0,0,0,0,0,4.0896,4.0895,4.0893,4.0893,4.0876,4.0876,4.0849,4.0848,0,0,0,0,0,0,0,0,0,0,0,4.0896,4.0896,4.0895,4.0893,4.0876,4.0876,4.0849,4.0863,0,0,0,0,0,0,0,0,0,0,4.088,4.088,4.0896,4.0895,4.0893,4.0876,4.0876,4.0864,4.0862,4.0854,0,4.0847,0,4.0847,4.0846,4.0846,0,0,0,4.0894,4.0881,4.088,4.0895,4.0893,4.0876,4.0884,4.0863,4.0861,4.0851,4.0847,4.0846,4.0847,4.0846,4.0846,4.0798,4.0798,0,0,4.0895,4.0891,4.0881,4.0878,4.0882,4.0885,4.0884,4.0862,4.0856,4.0847,4.0845,4.0846,4.0846,4.0845,4.0798,4.0798,0,0,0,4.0897,4.0891,4.089,4.0879,4.0877,4.0884,4.0883,4.0856,4.0857,4.0845,4.0846,4.0846,4.0845,4.0799,4.0798,4.0781,0,0,0,4.0897,4.0892,4.089,4.0888,4.0877,4.0867,4.0878,4.0858,4.0856,4.0846,4.0846,4.0845,4.0799,4.0798,4.0782,4.0773,0,0,0,4.0897,4.0892,4.0889,4.0887,4.0881,4.0867,4.0866,4.0858,4.0857,4.0846,4.0845,4.0799,4.0798,4.0783,4.0775,4.076,0,0,0,4.0896,4.0872,4.0889,4.0864,4.0881,4.0858,4.0867,4.0849,4.0838,4.0845,4.0799,4.0798,4.0784,4.0776,4.0761,4.0747,4.0741,0,0,4.0864,4.0868,4.0854,4.0868,4.0842,4.0861,4.0831,4.0823,4.0825,4.0807,4.0805,4.0782,4.0775,4.076,4.0708,4.0703,0,0,0,4.0842,4.0832,4.0826,4.0817,4.0813,4.0808,4.0806,4.0804,4.0789,4.0816,4.0773,4.0769,4.076,4.0753,4.0749,4.0742,4.0795,4.0795,4.0795,4.079,4.0796,4.0773,4.0777,4.0768,4.0768,4.0761,4.0758,4.0764,4.0754,4.0748,4.0716,4.0708,4.0705,4.0698,4.0741,4.0741,4.0741,4.0741,4.0744,4.073,4.0743,4.0725,4.0731,4.0715,4.0715,4.072,4.0706,4.072,4.0713,4.0727,4.0699,4.0693,4.074,4.074,4.074,4.074,4.0741,4.0709,4.0704,4.0704,4.0692,4.0683,4.0688,4.0675,4.068,4.0685,4.0678,4.0673,4.0673,4.0674,4.0676,4.0676,4.0675,4.0675,4.0675,4.0675,4.0674,4.0674,4.0663,4.0659,4.0655,4.065,4.0651,4.0647,4.0643,4.0648,4.0648,4.0656,4.0696,4.0706,4.0673,4.0674,4.0674,4.0674,4.0674,4.0624,4.0637,4.062,4.0616,4.0612,4.0603,4.0612,4.0603,4.06,4.0593,4.0604,4.0632,4.0636,4.064,4.0648,4.0602,4.0602,4.0602,4.0602,4.0595,4.0599,4.0584,4.0578,4.0572,4.0579,4.0559,4.0561,4.0564,4.0562,4.057,4.0581,4.0585,4.0587,4.0591,4.0599,4.0542,4.0542,4.0542,4.0565,4.0569,4.0551,4.0557,4.0555,4.0553,4.0535,4.0526,4.0532,4.054,4.0562,4.0564,4.0583,4.0588,4.0595,4.0602,4.0616,0,0]}]]